Location: Observatorio Las Palmas
(29.0667°N, 110.9333°W)
Time: 03:28:53
(UTC-07:00)

Hubble Space Telescope - Visible Passes

Search period start: 30 May 2015 00:00
Search period end: 09 June 2015 00:00
Orbit: 542 x 546 km, 28.5° (Epoch: 29 May)

Date Brightness Start Highest point End Pass type
(mag) Time Alt. Az. Time Alt. Az. Time Alt. Az.
30 May 2.3 04:44:00 10° SW 04:47:26 26° SSE 04:50:55 10° E visible
31 May 1.9 04:35:34 13° SW 04:38:41 32° SSE 04:42:25 10° E visible
01 Jun 1.5 04:27:13 17° SW 04:29:57 39° SSE 04:33:51 10° E visible
02 Jun 1.2 04:18:50 22° SW 04:21:13 48° SSE 04:25:14 10° E visible
03 Jun 0.9 04:10:26 27° SW 04:12:30 57° SSE 04:16:35 10° E visible
04 Jun 0.8 04:02:01 32° WSW 04:03:47 66° S 04:07:55 10° E visible
05 Jun 0.7 03:53:38 38° WSW 03:55:05 74° S 03:59:14 10° E visible
06 Jun 0.6 03:45:15 46° WSW 03:46:23 80° S 03:50:33 10° E visible
07 Jun 0.6 03:36:56 58° WSW 03:37:41 83° S 03:41:51 10° E visible
08 Jun 0.6 03:28:41 74° WSW 03:29:00 84° S 03:33:10 10° E visible
